Weather History for Lancaster, SC

Change the Weather History Date:

Friday, February 17, 2012

  Actual Average (KUZA) Record (KUZA)
Temperature  
Mean Temperature 54 °F -  
Max Temperature 62 °F 56 °F 76 °F (1976)
Min Temperature 46 °F 35 °F 6 °F (1958)
Degree Days  
Heating Degree Days 11    
Growing Degree Days 4 (Base 50)    
Moisture  
Dew Point 46 °F    
Average Humidity 80    
Maximum Humidity 100    
Minimum Humidity 45    
Precipitation  
Precipitation 0.00 in - - ()
Sea Level Pressure  
Sea Level Pressure 30.09 in    
Wind  
Wind Speed 1 mph (NNE)    
Max Wind Speed 8 mph    
Max Gust Speed -    
Visibility 7 miles    
Events      
Averages and records for this station are not official NWS values.
T = Trace of Precipitation, MM = Missing Value Source: NWS Daily Summary

Daily Weather History Graph

Daily Weather History Graph

Search for Another Location

Airport:

Trip Planner

Search our weather history database for the weather conditions in past years. The results will help you decide how hot, cold, wet, or windy it might be!

Date:

Astronomy

Feb. 17, 2012 Rise Set
Actual Time 7:07 AM EST 6:07 PM EST
Civil Twilight 6:41 AM EST 6:33 PM EST
Nautical Twilight 6:12 AM EST 7:03 PM EST
Astronomical Twilight 5:42 AM EST 7:32 PM EST
Moon 3:49 AM EST (2/17) 2:06 PM EST (2/17)
Length of Visible Light 11h 51m
Length of Day
11h 00m
Waning Crescent, 19% of the Moon is Illuminated
Feb 17
Waning Crescent
Feb 21
New
Feb 29
First Quarter
Mar 8
Full
Mar 14
Last Quarter

Hourly Weather History & Observations

Time (EST) Temp. Dew Point Humidity Pressure Visibility Wind Dir Wind Speed Gust Speed Precip Events Conditions
12:15 AM 48.2 °F 48.2 °F 100% 30.06 in 2.5 mi Calm Calm - N/A   Overcast
12:35 AM 48.2 °F 48.2 °F 100% 30.06 in 2.5 mi Calm Calm - N/A   Overcast
12:55 AM 50.0 °F 50.0 °F 100% 30.06 in 3.0 mi Calm Calm - N/A   Overcast
1:15 AM 50.0 °F 50.0 °F 100% 30.06 in 8.0 mi Calm Calm - N/A   Overcast
1:35 AM 50.0 °F 50.0 °F 100% 30.06 in 10.0 mi Calm Calm - N/A   Overcast
1:55 AM 50.0 °F 50.0 °F 100% 30.07 in 8.0 mi Calm Calm - N/A   Overcast
2:15 AM 50.0 °F 50.0 °F 100% 30.07 in 9.0 mi Calm Calm - N/A   Overcast
2:35 AM 50.0 °F 50.0 °F 100% 30.07 in 7.0 mi Calm Calm - N/A   Overcast
2:55 AM 50.0 °F 50.0 °F 100% 30.07 in 5.0 mi Calm Calm - N/A   Overcast
3:15 AM 50.0 °F 50.0 °F 100% 30.06 in 4.0 mi Calm Calm - N/A   Overcast
3:35 AM 50.0 °F 50.0 °F 100% 30.06 in 3.0 mi Calm Calm - N/A   Overcast
3:55 AM 50.0 °F 50.0 °F 100% 30.06 in 3.0 mi NNW 3.5 mph - N/A   Overcast
4:15 AM 50.0 °F 50.0 °F 100% 30.05 in 2.5 mi Calm Calm - N/A   Overcast
4:35 AM 48.2 °F 48.2 °F 100% 30.07 in 3.0 mi Calm Calm - N/A   Overcast
5:15 AM 48.2 °F 48.2 °F 100% 30.07 in 2.0 mi Calm Calm - N/A   Overcast
5:35 AM 48.2 °F 48.2 °F 100% 30.07 in 2.0 mi Calm Calm - N/A   Overcast
5:55 AM 48.2 °F 48.2 °F 100% 30.07 in 2.5 mi Calm Calm - N/A   Overcast
6:15 AM 48.2 °F 48.2 °F 100% 30.08 in 3.0 mi Calm Calm - N/A   Overcast
6:35 AM 48.2 °F 48.2 °F 100% 30.09 in 4.0 mi North 3.5 mph - N/A   Overcast
6:55 AM 48.2 °F 48.2 °F 100% 30.10 in 4.0 mi Calm Calm - N/A   Overcast
7:15 AM 46.4 °F 46.4 °F 100% 30.11 in 3.0 mi Calm Calm - N/A   Overcast
7:35 AM 46.4 °F 46.4 °F 100% 30.12 in 3.0 mi Calm Calm - N/A   Overcast
7:55 AM 46.4 °F 46.4 °F 100% 30.12 in 2.0 mi Calm Calm - N/A   Overcast
8:15 AM 48.2 °F 48.2 °F 100% 30.13 in 3.0 mi Calm Calm - N/A   Overcast
8:35 AM 48.2 °F 48.2 °F 100% 30.14 in 3.0 mi Calm Calm - N/A   Overcast
8:55 AM 48.2 °F 48.2 °F 100% 30.14 in 5.0 mi Calm Calm - N/A   Mostly Cloudy
9:15 AM 50.0 °F 48.2 °F 94% 30.14 in 5.0 mi Calm Calm - N/A   Partly Cloudy
9:35 AM 51.8 °F 48.2 °F 88% 30.14 in 10.0 mi NE 3.5 mph - N/A   Clear
9:55 AM 53.6 °F 46.4 °F 77% 30.13 in 10.0 mi NNE 5.8 mph - N/A   Clear
10:15 AM 55.4 °F 46.4 °F 72% 30.14 in 10.0 mi NNE 5.8 mph - N/A   Clear
10:35 AM 57.2 °F 44.6 °F 63% 30.14 in 10.0 mi NE 5.8 mph - N/A   Clear
10:55 AM 57.2 °F 42.8 °F 59% 30.14 in 10.0 mi NE 4.6 mph - N/A   Clear
11:15 AM 57.2 °F 42.8 °F 59% 30.14 in 10.0 mi North 8.1 mph - N/A   Clear
11:35 AM 57.2 °F 42.8 °F 59% 30.14 in 10.0 mi ENE 3.5 mph - N/A   Clear
11:55 AM 57.2 °F 41.0 °F 55% 30.13 in 10.0 mi Calm Calm - N/A   Clear
12:15 PM 57.2 °F 41.0 °F 55% 30.12 in 10.0 mi Calm Calm - N/A   Clear
12:35 PM 57.2 °F 41.0 °F 55% 30.12 in 10.0 mi Calm Calm - N/A   Clear
12:55 PM 57.2 °F 41.0 °F 55% 30.11 in 10.0 mi Calm Calm - N/A   Clear
1:15 PM 59.0 °F 41.0 °F 51% 30.10 in 10.0 mi Calm Calm - N/A   Clear
1:35 PM 59.0 °F 41.0 °F 51% 30.09 in 10.0 mi Calm Calm - N/A   Clear
1:55 PM 59.0 °F 42.8 °F 55% 30.08 in 10.0 mi Calm Calm - N/A   Clear
2:15 PM 59.0 °F 41.0 °F 51% 30.07 in 10.0 mi Calm Calm - N/A   Clear
2:35 PM 59.0 °F 42.8 °F 55% 30.08 in 10.0 mi Calm Calm - N/A   Clear
2:55 PM 60.8 °F 41.0 °F 48% 30.06 in 10.0 mi Calm Calm - N/A   Clear
3:15 PM 60.8 °F 42.8 °F 52% 30.07 in 10.0 mi Calm Calm - N/A   Clear
3:35 PM 60.8 °F 41.0 °F 48% 30.07 in 10.0 mi Calm Calm - N/A   Clear
3:55 PM 62.6 °F 41.0 °F 45% 30.07 in 10.0 mi Calm Calm - N/A   Clear
4:15 PM 62.6 °F 42.8 °F 48% 30.07 in 10.0 mi West 3.5 mph - N/A   Clear
4:35 PM 60.8 °F 41.0 °F 48% 30.07 in 10.0 mi Calm Calm - N/A   Clear
5:15 PM 60.8 °F 42.8 °F 52% 30.07 in 10.0 mi Calm Calm - N/A   Clear
5:35 PM 59.0 °F 42.8 °F 55% 30.07 in 10.0 mi Calm Calm - N/A   Clear
5:55 PM 55.4 °F 44.6 °F 67% 30.07 in 10.0 mi Calm Calm - N/A   Clear
6:15 PM 53.6 °F 46.4 °F 77% 30.07 in 10.0 mi Calm Calm - N/A   Clear
6:35 PM 50.0 °F 46.4 °F 87% 30.08 in 10.0 mi Calm Calm - N/A   Clear
6:55 PM 48.2 °F 46.4 °F 93% 30.09 in 10.0 mi Calm Calm - N/A   Clear
7:15 PM 46.4 °F 46.4 °F 100% 30.09 in 10.0 mi Calm Calm - N/A   Clear
7:35 PM 44.6 °F 44.6 °F 100% 30.08 in 10.0 mi Calm Calm - N/A   Clear
7:55 PM 44.6 °F 44.6 °F 100% 30.09 in 10.0 mi Calm Calm - N/A   Clear
8:15 PM 44.6 °F 44.6 °F 100% 30.09 in 10.0 mi Calm Calm - N/A   Clear
8:35 PM 42.8 °F 42.8 °F 100% 30.10 in 10.0 mi Calm Calm - N/A   Clear
8:55 PM 42.8 °F 42.8 °F 100% 30.10 in 10.0 mi Calm Calm - N/A   Clear
9:15 PM 41.0 °F 41.0 °F 100% 30.11 in 10.0 mi Calm Calm - N/A   Clear
9:35 PM 41.0 °F 41.0 °F 100% 30.10 in 10.0 mi Calm Calm - N/A   Clear
9:55 PM 41.0 °F 41.0 °F 100% 30.11 in 9.0 mi Calm Calm - N/A   Clear
10:15 PM 39.2 °F 39.2 °F 100% 30.11 in 7.0 mi Calm Calm - N/A   Clear
10:35 PM 39.2 °F 39.2 °F 100% 30.11 in 7.0 mi Calm Calm - N/A   Clear
10:55 PM 39.2 °F 39.2 °F 100% 30.11 in 5.0 mi Calm Calm - N/A   Clear
11:15 PM 39.2 °F 39.2 °F 100% 30.10 in 9.0 mi Calm Calm - N/A   Clear
11:35 PM 39.2 °F 39.2 °F 100% 30.10 in 10.0 mi Calm Calm - N/A   Clear
11:55 PM 39.2 °F 39.2 °F 100% 30.10 in 8.0 mi Calm Calm - N/A   Clear